Location: La Vesse
(43.3433°N, 5.2574°E)
Time: 09:32:09
(UTC+00:00)

Daily predictions for brighter satellites

Satellite Brightness Start Highest point End
(mag) Time Altitude Azimuth Time Altitude Azimuth Time Altitude Azimuth
COSMOS 2406 3.4 19:36:31 10° NNW 19:42:18 78° WSW 19:48:01 10° SSE
CZ-2C R/B 2.8 19:38:45 10° NNE 19:44:23 70° ESE 19:49:58 10° S
ARGOS 4.0 19:39:48 10° S 19:45:01 52° W 19:50:18 10° NNW
STARLINK-1083 4.0 19:40:55 10° NW 19:45:02 58° NNE 19:49:06 10° ESE
Meteor 2-4 Rocket 3.7 19:41:06 10° S 19:46:20 58° E 19:51:35 10° NNE
STARLINK-1202 3.9 19:42:43 10° WSW 19:46:51 75° NW 19:51:00 10° NE
EXPRESS MD2 3.3 19:46:22 10° SSW 19:48:49 36° SE 19:52:48 10° ENE
STARLINK-1125 3.9 19:45:54 10° NW 19:50:01 62° NNE 19:54:07 10° ESE
Cosmos 1743 4.4 19:48:40 10° NNW 19:52:08 34° W 19:55:34 10° SSW
Tsikada Rocket 4.3 19:46:24 10° SSW 19:52:33 71° W 19:58:43 10° N
Cosmos 1943 Rocket 3.9 19:51:31 10° ESE 19:53:35 12° E 19:55:41 10° ENE
Cosmos 1833 Rocket 2.7 19:48:07 10° NNW 19:53:46 84° ENE 19:59:23 10° SSE
STARLINK-1109 3.8 19:50:52 10° NW 19:55:00 67° NNE 19:59:08 10° ESE
STARLINK-1246 4.1 19:52:43 10° WSW 19:56:50 64° NNW 20:00:58 10° NE
Cosmos 1420 Rocket 4.0 19:53:55 10° SSW 19:59:07 89° ESE 20:04:21 10° NNE
Cosmos 1452 Rocket 3.6 19:54:13 10° S 19:59:24 63° ESE 20:04:38 10° NNE
Cosmos 332 Rocket 4.1 19:55:03 10° S 19:59:45 47° ESE 20:04:27 10° NNE
BREEZE-M DEB 3.3 19:58:17 10° S 19:59:57 19° SE 20:02:12 10° E
STARLINK-1091 3.8 19:55:49 10° NW 19:59:58 72° NE 20:04:03 10° ESE
Cosmos 2082 Rocket 2.4 19:54:44 10° NNW 20:00:25 60° ENE 20:06:01 10° SE
STARLINK-1224 4.3 19:57:43 10° WSW 20:01:49 60° NNW 20:05:56 10° NE
DMSP B5D2-2 4.3 19:56:36 10° N 20:01:54 79° WNW 20:07:09 10° SSW
Intercosmos 24 4.2 20:00:06 10° N 20:03:31 42° E 20:07:14 10° SSE
STARLINK-1072 3.7 20:00:49 10° NW 20:04:58 78° NE 20:08:52 11° ESE
Cosmos 1461 3.1 20:02:03 10° SSW 20:06:00 49° ESE 20:10:10 10° NE
STARLINK-1225 4.4 20:02:45 10° WSW 20:06:49 56° NNW 20:10:55 10° NE
MOS 1 Rocket 4.1 20:03:18 10° N 20:07:31 49° WNW 20:11:38 10° SSW
Iridium 51 4.5 20:03:44 10° S 20:07:35 68° W 20:11:11 10° N
Cosmos 1544 4.1 20:04:48 10° NNW 20:08:17 44° W 20:11:42 10° SSW
Okean 3 3.5 20:04:04 10° S 20:08:22 86° E 20:12:42 10° N
Cosmos 2369 Rocket 4.0 20:07:26 10° ESE 20:09:30 12° E 20:11:32 10° ENE
STARLINK-1096 3.6 20:05:48 10° NW 20:09:57 84° NE 20:13:39 13° SE
NOSS 2-2 (C) 4.1 20:09:26 10° S 20:12:23 25° ESE 20:15:29 10° ENE
STARLINK-1079 3.6 20:10:46 10° NW 20:14:56 89° SW 20:18:26 14° SE
Cosmos 2221 Rocket 3.7 20:11:43 10° S 20:16:14 85° W 20:20:49 10° N
SL-4 R/B 2.1 20:15:12 10° NW 20:18:05 42° WSW 20:20:30 12° S
SPOT 5 4.4 20:14:18 11° ESE 20:18:18 25° ENE 20:22:36 10° N
NOSS 8 (F) 4.2 20:16:21 10° SW 20:19:42 85° WNW 20:22:45 10° NE
Meteor 1-13 Rocket 4.2 20:14:15 10° S 20:19:49 74° E 20:25:34 10° NNE
STARLINK-1116 3.6 20:15:45 10° NW 20:19:55 83° SW 20:23:13 16° SE
ERS-1 Rocket 4.1 20:19:40 13° ESE 20:23:24 30° ENE 20:27:46 10° N
USA 245 3.0 20:27:56 19° SE 20:29:44 44° ENE 20:32:15 10° N
STARLINK-1094 3.7 20:25:44 10° WNW 20:29:51 70° SW 20:32:47 18° SE
Cosmos 2278 Rocket 3.6 20:27:02 10° SW 20:32:23 41° WNW 20:37:46 10° NNE
TSX-5 4.4 20:26:42 10° SSW 20:32:35 81° ESE 20:37:06 10° NNE
Resurs 01 Rocket 2.2 20:28:48 10° S 20:33:10 56° W 20:37:33 10° NNW
Nadezhda 4 Rocket 4.3 20:28:28 11° SSE 20:34:00 48° E 20:39:51 10° NNE
STARLINK-1117 3.8 20:30:43 10° WNW 20:34:49 64° SW 20:37:34 20° SE
GPS 2-04 Rocket1 3.7 20:32:00 10° WSW 20:34:51 23° S 20:35:57 20° SSE
Okean 1 Rocket 3.7 20:30:52 10° N 20:35:06 42° ENE 20:37:54 19° SE
Cosmos 1741 Rocket 4.0 20:30:26 10° NNW 20:35:41 83° ENE 20:39:49 17° SSE
Okean 2 Rocket 3.6 20:31:29 10° NNW 20:35:50 58° W 20:40:07 10° S
MetOp-B 4.1 20:32:01 12° SSE 20:36:59 89° WSW 20:42:23 10° NNW
STARLINK-1078 3.9 20:35:43 10° WNW 20:39:47 58° SW 20:42:21 21° SSE
SL-8 R/B 4.1 20:37:05 10° WNW 20:41:51 60° NNE 20:46:17 12° E
Cosmos 2279 Rocket 4.2 20:37:43 10° NNW 20:43:57 74° W 20:50:07 10° S
Cosmos 371 Rocket 4.3 20:39:35 10° SW 20:44:17 48° WNW 20:49:01 10° N
STARLINK-1108 4.0 20:40:43 10° WNW 20:44:45 53° SW 20:47:08 22° SSE
Cosmos 1850 Rocket 4.1 20:39:54 10° NNW 20:45:16 78° WSW 20:49:25 17° SSE
SL-4 R/B 3.2 20:42:00 10° S 20:45:57 27° SE 20:50:00 10° ENE
ATLAS 3B CENTAUR R/B 4.0 20:33:49 10° WSW 20:46:20 31° S 20:50:57 19° SE
Cosmos 1110 Rocket 4.0 20:41:14 10° S 20:46:20 64° ESE 20:51:28 10° NNE
STARLINK-1121 4.4 20:42:59 10° NW 20:47:00 46° NNE 20:50:08 15° E
Terra 3.0 20:44:22 17° ESE 20:47:04 29° ENE 20:51:10 10° N
Spot 2 Rocket 3.5 20:44:03 16° SSE 20:48:08 87° WSW 20:53:13 10° NNW
SPOT 1/Viking Rocket 3.6 20:45:17 19° SSE 20:49:01 70° ENE 20:54:09 10° N
STARLINK-1071 4.1 20:45:43 10° WNW 20:49:43 48° SW 20:51:55 24° SSE
CARTOSAT-1 4.1 20:47:49 22° SE 20:50:14 44° ENE 20:54:21 10° N
Abrixas rocket 2.1 20:47:28 10° WNW 20:50:25 66° NNE 20:51:50 27° E
Cosmos 2151 Rocket 4.1 20:46:07 10° NNW 20:50:36 59° W 20:54:34 13° S
STARLINK-1106 4.3 20:47:58 10° NW 20:52:01 49° NNE 20:54:56 17° E
STARLINK-1110 4.2 20:49:31 10° WNW 20:53:29 45° SW 20:55:32 24° SSE
STARLINK-1112 4.2 20:52:55 10° NW 20:56:59 52° NNE 20:59:41 19° E
STARLINK-1124 4.4 20:55:45 10° WNW 20:59:38 40° SW 21:01:29 25° S
Aureole 2 3.9 20:56:35 10° NNW 20:59:41 83° ENE 21:00:36 40° SSE
STARLINK-1128 4.1 20:57:52 10° NW 21:01:58 56° NNE 21:04:28 22° ESE
Cosmos 1331 Rocket 3.9 20:57:58 10° SSW 21:03:07 81° ESE 21:08:19 10° NNE
Aureole 2 Rocket 3.3 21:01:04 10° SW 21:04:04 42° WNW 21:06:56 10° N
deb Kosmos-1763 4.0 21:01:50 10° NNW 21:05:25 74° WSW 21:06:57 32° S
STARLINK-1113 4.0 21:02:51 10° NW 21:06:58 60° NNE 21:09:15 24° ESE
Cosmos 1733 4.0 21:04:56 10° N 21:08:29 36° ENE 21:09:32 30° ESE
Cosmos 1437 Rocket 4.1 21:05:22 10° SW 21:08:53 37° WNW 21:12:29 10° N
Cosmos 1378 3.0 21:09:41 31° S 21:11:21 75° E 21:15:04 10° NNE
STARLINK-1119 3.8 21:07:51 10° NW 21:11:59 65° NNE 21:14:04 27° ESE
Cosmos 1302 Rocket 4.2 21:10:13 24° S 21:13:14 52° ESE 21:18:23 10° NNE
Cosmos 1242 Rocket 4.1 21:15:26 22° E 21:15:26 22° E 21:18:15 10° NE
ISS -1.9 21:14:06 10° W 21:16:35 19° SW 21:17:02 19° SW
STARLINK-1114 3.7 21:12:48 10° NW 21:16:57 70° NNE 21:18:49 31° ESE
Cosmos 1092 Rocket 3.9 21:15:30 23° S 21:19:28 68° E 21:25:35 10° NNE
Lacrosse 5 3.4 21:15:38 10° WNW 21:19:42 25° WSW 21:22:07 17° SSW
NOSS 2-2 (D) 3.7 21:17:10 10° SW 21:20:41 59° NW 21:24:33 10° NNE
STARLINK-1130 (DARKSAT) 3.6 21:17:47 10° NW 21:21:56 76° NE 21:23:37 35° ESE
CENTAUR R/B 3.8 21:16:49 10° NNW 21:24:32 50° NE 21:31:08 17° ESE
STARLINK-1084 3.6 21:22:45 10° NW 21:26:55 82° NE 21:28:24 39° ESE
ATLAS 3B R/B 4.3 21:21:43 10° NNW 21:27:20 27° NE 21:33:04 10° E
SL-27 R/B 3.2 21:25:31 10° N 21:28:53 38° ENE 21:29:28 35° E
NOSS 3-2 (C) 4.5 21:22:29 10° NNW 21:29:52 56° NE 21:35:37 21° ESE
Cosmos 1766 3.2 21:27:32 10° N 21:31:32 87° W 21:32:47 43° S
STARLINK-1098 3.5 21:27:44 10° NW 21:31:54 88° NE 21:33:11 43° SE
Cosmos 2195 Rocket 4.5 21:30:45 25° S 21:34:34 77° E 21:40:51 10° N
Cosmos 1943 Rocket 2.1 21:31:46 15° SSW 21:36:26 90° ESE 21:42:04 10° NNE
STARLINK-1123 3.5 21:32:42 10° NW 21:36:52 85° SSW 21:37:57 48° SE
NOSS 3-4 (A) 3.9 21:36:31 33° SE 21:37:57 37° ESE 21:43:34 10° NE
NOSS 3-4 (C) 3.9 21:36:40 32° SE 21:38:03 37° ESE 21:43:39 10° NE
Cosmos 1900 4.3 21:34:04 10° NW 21:39:08 82° WSW 21:41:01 39° SSE
STARLINK-1097 3.5 21:37:43 10° WNW 21:41:52 78° SW 21:42:45 53° SE
Cosmos 2082 Rocket 4.1 21:39:52 10° NW 21:43:58 21° W 21:47:54 11° SW
SeaSat 1 3.4 21:40:19 10° NE 21:44:34 29° ESE 21:44:34 29° ESE
Cosmos 1975 Rocket 3.1 21:44:36 37° SSW 21:46:19 82° W 21:50:45 10° N
STARLINK-1099 3.5 21:42:41 10° WNW 21:46:50 72° SW 21:47:31 57° SSE
Cosmos 292 Rocket 3.7 21:48:20 43° S 21:49:49 67° ESE 21:54:39 10° NNE
BREEZE-M DEB (TANK) 4.2 21:33:36 10° WSW 21:50:30 70° NNW 21:54:39 10° ENE
STARLINK-1104 3.6 21:47:40 10° WNW 21:51:47 66° SW 21:52:18 59° S
BREEZE-M DEB (TANK) 4.4 21:48:14 10° WNW 21:52:00 36° N 21:55:28 10° ENE
Cosmos 2369 Rocket 2.1 21:49:04 24° SSW 21:52:37 87° ESE 21:58:18 10° NNE
SPOT 5 3.8 21:53:31 27° SSW 21:56:02 47° W 22:01:11 10° NNW
STARLINK-1144 3.6 21:52:40 10° WNW 21:56:46 60° SW 21:57:05 58° SSW
ATLAS CENTAUR R/B 2.6 21:59:35 29° E 21:59:35 29° E 22:02:23 10° NE
Aureole 3 Rocket 4.5 21:53:18 10° N 21:59:44 73° E 22:03:54 33° SSE
STARLINK-1103 3.7 21:57:39 10° WNW 22:01:43 55° SW 22:01:51 54° SSW
ERS-1 Rocket 4.2 21:59:40 22° SW 22:02:06 34° W 22:06:41 10° NNW
Cosmos 1340 Rocket 4.4 21:58:49 10° NNE 22:02:07 23° ENE 22:02:31 23° E
Cosmos 1025 Rocket 3.3 22:02:58 48° ESE 22:03:13 49° E 22:07:22 10° NNE
Okean 2 4.3 22:02:00 28° SW 22:03:45 44° WNW 22:07:44 10° N
Cosmos 2026 Rocket 4.1 22:00:24 28° SSW 22:03:56 76° W 22:10:19 10° N
ATLAS 2AS CENTAUR R/B 3.0 22:00:30 22° SSW 22:05:53 68° ESE 22:13:47 10° NE
Thor Agena Rocket 3.7 22:00:48 10° NNE 22:06:01 56° ESE 22:07:11 46° SSE
Cosmos 1656 Rocket 3.7 22:04:50 44° SSE 22:06:16 57° ESE 22:11:45 10° NNE
STARLINK-1101 3.9 22:02:39 10° WNW 22:06:38 50° SW 22:06:38 50° SW
BREEZE M DEB (TANK) 4.2 22:03:58 10° W 22:07:07 28° NNW 22:08:33 15° NE
Cosmos 1553 Rocket 4.0 22:03:11 10° N 22:09:29 74° E 22:11:43 42° SSE
BREEZE-M DEB (TANK) 4.1 21:56:24 10° WNW 22:09:45 75° NNE 22:11:56 31° E
STARLINK-1228 4.5 22:07:03 10° NW 22:10:19 36° NNE 22:11:08 31° ENE
Cosmos 1953 3.3 22:06:56 10° N 22:10:35 33° ENE 22:10:41 33° E
APEX 4.3 22:06:47 25° SSW 22:10:46 89° WNW 22:16:17 10° NNE
NOSS 3-2 (A) 4.2 22:03:41 10° NW 22:11:18 69° WSW 22:15:11 35° SSE
STARLINK-1102 4.1 22:07:40 10° WNW 22:11:26 45° SW 22:11:26 45° SW
Cosmos 1470 2.5 22:07:51 10° N 22:11:44 82° E 22:11:51 80° ESE
STARLINK-1235 4.4 22:09:47 10° NW 22:12:46 33° NNE 22:13:12 32° NE
Cosmos 968 Rocket 3.4 22:11:09 10° NNW 22:16:19 84° ENE 22:17:31 54° SSE
STARLINK-1111 4.3 22:12:40 10° WNW 22:16:12 40° WSW 22:16:12 40° WSW
Cosmos 1655 Rocket 4.1 22:15:02 42° SSE 22:17:00 62° E 22:23:10 10° NNE
Cosmos 1455 Rocket 3.5 22:14:24 10° NNW 22:18:36 51° W 22:19:25 44° SW
ATLAS 5 CENTAUR R/B 1.9 22:14:38 10° SW 22:21:46 59° ENE 22:23:49 10° NE
USA 238 DEB 4.1 22:15:58 10° NW 22:23:03 58° WSW 22:25:51 37° S
USA 238 4.1 22:16:04 10° NW 22:23:10 58° WSW 22:25:58 38° S
SL-8 R/B 4.1 22:19:45 10° WNW 22:24:13 46° SW 22:24:13 46° SW
Terra 3.1 22:23:15 26° SW 22:24:44 31° W 22:28:59 10° NNW
Cosmos 1758 3.2 22:21:10 10° N 22:25:14 81° W 22:25:25 78° SW
SL-4 R/B 2.6 22:20:36 10° WSW 22:25:23 71° NNW 22:30:15 10° NE
STARLINK-1234 4.0 22:27:28 10° NW 22:30:16 44° N 22:30:16 44° N
In-Cosmos 22 4.2 22:30:05 49° SE 22:30:52 54° E 22:36:00 10° NNE
Cosmos 2266 Rocket 4.0 22:33:43 47° SSE 22:35:17 62° E 22:41:14 10° NNE
Cosmos 1503 Rocket 3.9 22:31:08 10° NNW 22:36:30 90° SSW 22:37:35 58° SSE
STARLINK-1209 4.0 22:33:35 10° NW 22:36:13 46° NNW 22:36:13 46° NNW
Meteor 2-8 Rocket 4.4 22:36:08 10° N 22:42:19 85° W 22:44:07 49° S
Cosmos 1536 Rocket 3.7 22:45:44 59° WSW 22:46:09 63° W 22:50:29 10° N
Cosmos 1674 3.8 22:48:20 36° ENE 22:48:20 36° ENE 22:51:08 10° NNE
Cosmos 1271 Rocket 3.9 22:49:29 34° W 22:49:56 36° WNW 22:53:35 10° N
Cosmos 1242 Rocket 4.5 22:49:25 22° W 22:50:08 23° WNW 22:53:08 10° NNW
Spot 4 3.9 22:53:29 59° SW 22:54:04 65° WSW 22:58:54 10° NNW
COSMOS 2455 2.7 22:52:50 46° SSW 22:54:45 89° ESE 23:00:49 10° NNE
Cosmos 1354 Rocket 4.0 22:50:31 10° NNW 22:55:48 70° WSW 22:56:35 60° SSW
Cosmos 883 Rocket 4.4 22:51:13 10° N 22:57:23 77° E 22:58:57 52° SSE
USA 215 3.7 22:52:57 16° ESE 22:58:15 59° NNE 23:04:40 10° NW
Cosmos 1707 3.9 22:59:44 35° W 22:59:58 35° WNW 23:03:34 10° N
Cosmos 1833 4.4 22:54:46 10° NNW 23:00:17 56° WSW 23:01:10 51° SW
Helios 1A 3.8 23:01:35 40° ENE 23:01:47 40° ENE 23:05:44 10° N
Cosmos 2297 Rocket 4.2 22:58:33 10° N 23:02:50 21° NE 23:07:00 10° E
Cosmos 1174 4.4 23:06:36 44° NNW 23:06:36 44° NNW 23:09:37 10° NNE
ALOS 2 2.4 23:07:47 88° SE 23:07:50 89° ENE 23:12:15 10° NNW
Cosmos 1726 2.9 23:04:17 10° NNW 23:07:20 46° WNW 23:07:20 46° WNW
Timation 2 Rocket 4.3 23:04:25 10° NNW 23:10:37 56° ENE 23:12:55 36° ESE
COSMOS 2487 3.6 23:08:10 10° NNW 23:10:32 39° NW 23:10:32 39° NW
Cosmos 2058 Rocket 4.2 23:07:34 10° N 23:11:37 34° ENE 23:11:58 33° E
Meteor 2-5 Rocket 3.8 23:14:12 53° SE 23:15:00 59° E 23:20:31 10° NNE
CENTAUR R/B 3.5 23:07:36 10° NW 23:15:32 52° WSW 23:18:18 39° SSW
Meteor 1-16 Rocket 4.2 23:11:34 10° NNW 23:17:00 64° W 23:17:49 56° SW
Cosmos 1867 3.8 23:13:09 10° NW 23:18:28 53° WSW 23:18:45 52° SW
ATLAS 3B R/B 2.6 23:11:58 10° NW 23:18:49 87° SW 23:21:10 46° SSE
Cosmos 1606 Rocket 3.5 23:17:23 10° N 23:21:36 83° NNE 23:21:36 83° NNE
SeaSat 1 3.5 23:17:33 10° NNE 23:22:10 41° NW 23:24:20 26° WSW
Cosmos 2098 Rocket 4.3 23:20:08 47° S 23:22:32 87° W 23:30:04 10° N
ATLAS CENTAUR R/B 3.9 23:26:57 10° N 23:28:40 16° NE 23:31:09 10° E
NOSS 3-4 (A) 4.4 23:23:52 14° WSW 23:28:42 43° NW 23:34:46 10° NNE
NOSS 3-4 (C) 4.4 23:24:01 15° WSW 23:28:47 44° NW 23:34:53 10° NNE
RESURS DK-1 2.5 23:29:48 72° N 23:29:48 72° N 23:33:36 10° NNE
STARLINK-1271 4.4 23:26:53 10° NW 23:30:56 50° NNE 23:31:49 42° ENE
Cosmos 2084 3.5 23:33:36 83° NNW 23:33:36 83° NNW 23:38:00 10° NE
Cosmos 1626 3.0 23:36:00 44° NE 23:36:00 44° NE 23:38:51 10° NNE
BREEZE-M R/B 3.6 23:31:45 31° SW 23:35:17 75° SSE 23:39:22 10° ENE
Cosmos 2315 Rocket 4.0 23:29:22 10° NNW 23:35:32 68° W 23:36:58 51° SSW
STARLINK-1154 4.2 23:31:51 10° NW 23:35:56 53° NNE 23:36:35 47° ENE
ATLAS CENTAUR R/B 3.1 23:35:42 22° W 23:37:28 29° NW 23:41:07 10° NNE
Okean 1-7 Rocket 3.6 23:37:39 69° E 23:37:39 69° E 23:42:06 10° NNE
Cosmos 1340 Rocket 4.4 23:35:05 10° NNW 23:38:06 27° W 23:38:06 27° W
Cosmos 2227 Rocket 3.6 23:34:57 10° N 23:40:03 33° NE 23:43:29 18° ESE
STARLINK-1197 4.1 23:36:48 10° NW 23:40:54 57° NNE 23:41:21 53° ENE
Nadezhda 2 Rocket 4.3 23:39:44 56° S 23:41:09 90° ENE 23:47:19 10° N
Cosmos 1908 4.2 23:39:33 10° NNW 23:42:29 39° WNW 23:42:29 39° WNW
CZ-4 R/B 4.1 23:39:06 10° NNE 23:43:44 51° E 23:43:50 50° ESE
STARLINK-1198 4.0 23:41:46 10° NW 23:45:53 62° NNE 23:46:07 60° NE
Cosmos 1953 4.4 23:44:00 10° NW 23:46:22 18° W 23:46:22 18° W
STARLINK-1199 3.8 23:46:45 10° NW 23:50:54 67° NNE 23:50:56 66° NE
Meteor 2-21 Rocket 4.4 23:50:06 54° SSE 23:51:33 77° E 23:57:45 10° NNE
Landsat 4 4.2 23:47:52 10° N 23:51:00 55° NNW 23:51:00 55° NNW
